2025-185D

Last updated on Sat Sep 13 2025 00:02:07 GMT+0000 (Coordinated Universal Time)

1 65300U 25185D 25255.57770347 .00001219 00000+0 21095-3 0 9996 2 65300 97.9691 337.9250 0010402 234.1073 125.9169 14.70067050 2895
UTC large
Height (km)
Speed (km/s)
/
Latitude / Longitude
Inclination (degrees)
Orbital Period (minutes)
Azimuth
Elevation
Range (km)
Doppler Factor

Next 0 passes for location: London (51.5072 / 0.1276)

Sorry there are no passes over London.